Wind_Speed
9 10 10 11 11 12 12 12 13 15 17 18 19 20 22 24 24 26 28 28 29 29 30 31 31 31 31 32 32 32 33 33 33 32 32 32 33 34 33 33 33 33 34 35
9 10 10 10 10 11 12 11 12 14 15 16 17 18 20 21 21 23 25 27 26 27 29 29 30 30 31 31 31 31 31 32 33 34 33 33 34 35 35 36 36 35 35 35
7 8 9 9 10 10 12 12 12 12 14 15 15 16 17 19 21 22 23 25 26 26 27 28 29 29 30 31 31 31 32 31 33 34 34 34 34 35 35 35 35 36 37 36
6 7 8 9 9 9 10 11 12 12 13 14 15 15 14 17 19 21 22 23 25 26 25 27 28 29 29 30 31 31 32 33 33 34 35 35 35 36 36 37 37 37 37 37
7 7 7 8 9 9 10 10 11 11 12 13 14 15 14 15 18 19 20 23 24 25 25 26 27 28 29 30 31 32 32 33 34 35 36 36 35 36 36 37 37 37 37 36
8 8 8 8 8 10 10 10 10 11 12 13 12 13 14 14 15 17 18 20 21 23 24 24 26 27 28 29 30 32 33 33 34 35 36 37 37 37 37 38 38 38 38 38
8 8 8 8 8 9 10 11 11 11 12 13 12 13 13 14 15 16 17 18 19 20 22 24 26 27 27 29 29 30 32 33 34 35 36 36 37 38 38 39 39 40 40 40
9 9 9 9 9 9 10 10 11 12 13 13 13 14 14 13 14 15 16 17 18 19 21 23 25 26 27 28 30 31 32 33 34 35 36 37 37 38 38 39 39 40 40 41
10 10 10 10 10 10 10 11 11 13 13 13 14 14 15 14 14 15 16 17 19 20 21 23 24 26 27 29 31 33 34 34 35 36 37 37 38 38 39 39 40 40 40 40
11 11 11 11 11 11 11 12 12 13 14 15 15 15 16 16 16 17 17 18 20 21 21 23 25 26 27 29 31 33 35 35 36 37 38 39 39 40 40 40 40 41 41 41
12 12 12 13 13 13 13 14 14 15 16 16 16 15 16 16 17 18 19 20 21 22 23 24 25 27 28 29 31 33 35 36 37 37 38 39 40 41 41 42 42 42 43 43
14 14 14 14 14 15 15 16 16 17 17 17 18 17 17 18 19 20 21 22 22 24 25 26 27 29 30 31 32 33 34 36 37 38 39 40 41 41 42 42 43 44 44 45
17 17 16 16 16 16 17 18 18 19 19 19 20 20 20 21 22 22 23 24 24 26 27 28 30 30 31 32 33 34 34 36 37 38 38 39 40 41 42 43 44 44 45 46
19 19 19 19 19 19 19 19 21 22 22 22 22 22 23 24 25 25 25 26 27 28 29 29 30 31 32 33 34 35 36 37 37 38 39 39 40 41 42 43 44 45 46 47
22 22 21 21 21 21 21 22 23 24 24 25 24 24 25 27 27 27 28 28 29 30 30 31 31 32 33 34 34 35 36 37 38 38 39 40 41 42 42 44 45 46 47 48
26 26 25 24 25 25 25 24 25 26 26 27 27 27 27 29 29 30 30 31 31 31 32 33 33 34 34 35 35 36 37 38 38 39 40 41 42 43 44 45 46 47 48 48
29 29 29 28 28 29 28 26 27 28 27 28 29 28 30 31 31 32 32 33 33 34 34 34 35 35 35 36 36 37 38 39 39 40 42 42 44 44 45 46 47 47 48 49
32 32 32 32 31 32 30 30 30 30 30 31 31 31 32 33 33 34 34 35 35 35 36 36 36 37 37 37 38 39 39 40 41 42 43 43 45 46 46 47 48 48 49 49
33 33 34 34 34 34 32 32 32 32 32 32 33 33 34 35 35 35 36 36 36 36 37 37 38 38 38 39 40 40 41 42 42 43 44 45 46 47 48 48 49 49 50 51
35 35 36 36 37 37 35 34 34 35 35 34 35 35 35 36 36 36 37 37 37 37 37 38 39 39 40 41 41 42 43 44 44 45 46 46 47 48 49 49 50 51 52 52
38 39 39 39 39 39 38 37 37 37 37 37 37 37 37 37 37 37 38 38 38 38 39 40 40 41 42 43 43 44 45 45 46 47 47 48 49 49 50 50 51 52 53 53
41 41 41 41 41 40 39 39 39 39 39 39 39 39 39 39 39 39 40 40 40 41 41 41 42 43 44 44 45 45 46 47 48 48 48 49 49 50 50 51 52 53 54 54
42 42 43 43 43 42 41 41 41 41 42 41 41 41 41 41 41 42 42 42 42 42 43 43 44 44 44 45 46 46 47 48 48 48 48 49 50 50 51 52 52 53 55 56
44 44 44 44 43 43 43 43 43 43 43 43 43 43 43 43 43 43 43 43 44 44 44 45 45 45 45 45 46 46 47 47 48 48 49 49 50 51 51 52 53 54 55 57
45 46 46 46 45 45 45 45 44 45 45 46 45 45 45 45 45 45 45 45 45 45 45 46 46 46 46 46 46 46 46 47 47 48 49 50 50 51 52 53 54 55 56 57
45 46 47 47 47 48 47 47 47 47 47 47 47 46 46 46 46 46 46 46 46 46 45 45 45 45 45 45 45 45 46 47 48 48 49 50 51 51 52 53 53 53 54 55
Wind_Direction
275 270 268 264 263 262 260 260 260 256 252 248 244 245 243 242 240 236 235 233 228 227 226 226 227 229 232 236 239 241 243 246 249 252 254 256 259 261 264 267 270 272 273 274
279 272 271 269 267 261 259 261 258 255 255 249 245 246 242 241 237 236 235 232 228 227 227 227 228 232 235 239 242 244 245 248 250 253 256 258 260 261 263 267 269 271 273 274
295 284 274 269 265 259 261 262 259 258 255 251 244 243 242 243 238 232 231 234 233 231 230 232 234 235 237 239 243 245 247 250 253 254 257 259 262 264 265 267 272 273 273 275
302 291 278 266 261 262 264 261 259 257 256 252 246 247 241 239 240 237 235 236 238 237 236 235 236 237 238 240 244 247 249 252 255 257 259 261 262 265 267 270 273 275 275 275
306 297 286 272 266 264 270 266 261 257 256 254 250 251 244 243 242 240 240 241 242 243 242 240 239 241 242 244 247 251 252 255 257 259 261 262 264 267 268 271 273 275 276 276
309 302 293 279 272 266 269 269 265 261 259 260 262 260 255 251 250 247 246 247 245 246 244 244 245 246 246 247 248 251 255 257 259 261 263 265 267 268 270 272 274 275 277 277
309 301 299 290 279 270 269 270 271 268 265 263 264 263 262 260 258 257 251 247 249 248 247 247 248 250 250 251 252 253 256 259 261 264 265 268 269 270 272 274 275 275 276 277
309 304 299 294 287 282 277 275 275 276 273 268 265 265 263 260 259 257 255 252 250 251 251 251 252 253 255 256 256 258 260 263 264 266 267 268 269 271 273 274 275 276 276 277
311 304 298 293 288 282 277 276 277 280 279 277 272 271 266 262 259 257 257 256 256 256 257 256 256 256 259 260 260 260 263 265 267 268 270 271 272 274 275 275 275 276 277 279
305 301 298 292 286 278 274 276 278 281 285 283 280 278 272 267 263 261 261 262 262 261 260 259 259 258 261 263 263 264 265 267 269 270 271 273 275 277 277 278 278 278 279 280
302 299 295 290 287 284 278 275 276 279 282 284 284 281 276 275 271 268 265 265 265 266 265 263 263 263 265 267 267 268 268 269 271 273 274 275 276 277 278 278 278 278 279 279
301 297 292 288 285 282 281 279 276 277 280 280 282 283 279 277 274 272 270 269 268 268 266 267 267 268 270 271 272 273 273 273 274 275 276 276 277 277 277 278 278 278 280 280
300 297 294 289 286 282 279 278 277 277 279 278 278 282 281 281 278 275 273 272 270 269 268 269 270 272 273 274 275 276 276 276 276 277 277 278 278 278 278 279 279 279 280 281
296 295 294 292 291 287 282 278 276 276 279 277 278 281 281 280 279 277 276 275 274 273 273 274 275 275 276 276 277 278 278 278 278 278 278 279 280 280 279 280 280 281 282 282
292 292 291 290 289 287 284 281 279 279 279 279 279 279 280 281 281 280 280 279 278 278 277 277 278 277 277 277 278 279 279 279 279 279 280 280 281 281 281 281 281 282 282 283
289 289 288 287 287 285 283 283 281 280 280 280 280 280 280 280 280 281 280 280 280 280 278 278 279 279 278 278 278 279 280 280 280 280 281 281 282 282 283 283 283 284 284 285
286 286 286 285 284 284 284 285 281 280 280 280 280 280 279 279 280 280 280 280 280 279 279 278 278 279 279 280 280 280 281 281 281 281 281 282 282 283 284 284 284 284 285 286
285 285 285 284 283 283 286 284 283 283 282 281 281 280 280 280 279 279 279 279 279 279 278 278 279 280 280 281 281 282 282 283 283 282 282 283 284 284 285 285 285 286 286 287
284 284 284 284 284 284 284 285 284 283 282 282 282 282 281 281 280 280 279 278 278 279 279 279 279 280 281 281 282 283 283 283 283 283 283 284 285 285 285 285 286 286 287 287
281 282 282 283 283 284 285 284 283 283 282 282 282 281 281 280 280 280 280 279 279 279 279 279 280 281 282 282 282 283 283 284 284 284 284 285 285 286 286 286 286 287 287 288
280 281 282 283 283 284 285 284 283 282 283 282 281 281 281 281 280 280 279 279 279 280 280 280 281 281 282 282 283 283 284 284 284 284 285 285 286 286 286 287 287 288 288 289
279 280 281 282 282 283 283 282 282 282 281 281 281 281 281 281 281 280 280 281 281 281 281 281 281 282 282 282 283 283 284 284 284 285 285 286 286 286 287 287 288 288 289 289
277 278 279 279 280 281 281 280 281 280 280 280 280 280 280 280 281 282 281 281 281 282 282 282 282 282 283 284 284 285 285 285 286 286 287 287 287 287 288 288 289 290 290 290
276 276 276 277 278 278 279 278 278 279 279 279 279 280 280 280 281 282 282 281 281 282 282 282 282 282 283 284 285 285 286 286 287 287 288 288 288 289 289 290 290 291 291 291
275 275 276 276 277 276 276 276 276 276 277 278 278 279 280 281 281 281 281 282 281 281 281 281 282 282 283 284 284 285 286 287 287 288 289 290 290 290 291 291 292 292 292 293
275 275 275 276 276 275 276 276 276 276 277 278 279 279 280 281 281 281 282 282 282 283 283 282 282 282 283 283 284 285 286 287 288 289 290 291 291 291 292 292 293 293 294 295
Height
5707 5708 5708 5709 5710 5711 5711 5712 5712 5713 5714 5716 5717 5718 5720 5722 5724 5726 5729 5732 5736 5740 5744 5749 5753 5758 5762 5765 5769 5772 5774 5776 5778 5779 5781 5783 5784 5784 5785 5786 5786 5786 5786 5786
5706 5706 5707 5708 5708 5709 5709 5710 5711 5712 5712 5714 5715 5716 5718 5719 5722 5724 5727 5729 5732 5737 5741 5745 5749 5753 5756 5760 5763 5766 5768 5770 5772 5773 5775 5776 5777 5777 5778 5779 5779 5779 5779 5778
5705 5706 5706 5706 5707 5707 5708 5709 5710 5711 5711 5712 5713 5715 5716 5717 5719 5721 5724 5726 5729 5733 5737 5741 5745 5748 5751 5754 5757 5759 5762 5763 5765 5766 5768 5769 5770 5770 5771 5771 5771 5771 5771 5770
5704 5704 5705 5705 5706 5707 5708 5708 5708 5709 5710 5710 5712 5713 5715 5716 5717 5719 5721 5724 5727 5729 5733 5736 5740 5743 5745 5748 5751 5753 5756 5757 5758 5759 5761 5762 5762 5763 5763 5764 5764 5763 5762 5762
5704 5704 5704 5705 5705 5706 5707 5707 5707 5708 5708 5709 5710 5711 5714 5714 5716 5718 5720 5722 5725 5727 5729 5732 5735 5738 5741 5743 5745 5747 5749 5750 5751 5752 5753 5754 5754 5755 5755 5755 5756 5755 5754 5753
5705 5704 5704 5704 5705 5705 5706 5707 5707 5707 5707 5708 5709 5710 5711 5713 5714 5716 5718 5720 5722 5724 5726 5728 5730 5733 5735 5737 5739 5741 5742 5743 5744 5745 5746 5746 5746 5747 5747 5747 5747 5747 5746 5745
5705 5705 5704 5704 5704 5705 5705 5706 5706 5705 5705 5707 5708 5708 5710 5711 5712 5714 5716 5717 5719 5720 5722 5724 5726 5728 5730 5731 5732 5734 5736 5736 5737 5738 5738 5738 5738 5738 5738 5738 5738 5738 5737 5736
5705 5705 5704 5704 5704 5704 5704 5705 5705 5705 5705 5706 5706 5706 5709 5709 5710 5711 5713 5714 5715 5717 5718 5719 5721 5722 5724 5725 5726 5727 5728 5729 5729 5730 5730 5730 5730 5729 5729 5729 5729 5728 5727 5727
5704 5704 5704 5703 5703 5703 5703 5703 5704 5704 5703 5704 5705 5705 5707 5707 5708 5709 5710 5711 5712 5713 5714 5715 5715 5717 5717 5718 5719 5720 5721 5721 5721 5722 5721 5721 5721 5721 5720 5719 5719 5718 5718 5717
5703 5703 5703 5702 5702 5702 5702 5702 5702 5702 5702 5702 5703 5703 5704 5704 5705 5706 5707 5707 5708 5708 5709 5709 5710 5710 5711 5711 5712 5712 5713 5713 5713 5713 5713 5712 5712 5711 5710 5710 5709 5708 5707 5707
5701 5701 5701 5701 5701 5700 5701 5701 5700 5700 5700 5700 5700 5703 5701 5701 5702 5702 5702 5703 5703 5703 5703 5703 5704 5704 5704 5704 5704 5704 5704 5704 5704 5704 5703 5703 5702 5701 5700 5699 5699 5698 5697 5696
5700 5699 5699 5699 5699 5698 5698 5698 5698 5699 5698 5697 5697 5702 5698 5698 5698 5698 5698 5698 5698 5697 5697 5697 5697 5697 5697 5697 5696 5696 5695 5695 5695 5694 5694 5693 5692 5691 5690 5689 5688 5687 5686 5685
5697 5697 5696 5696 5698 5697 5696 5695 5695 5695 5695 5694 5694 5698 5695 5694 5693 5693 5692 5692 5692 5691 5691 5690 5690 5690 5689 5689 5688 5687 5687 5686 5686 5685 5684 5683 5682 5680 5679 5678 5677 5675 5674 5673
5694 5694 5694 5694 5692 5691 5692 5692 5691 5691 5690 5690 5691 5691 5690 5689 5688 5687 5687 5686 5686 5685 5684 5683 5683 5682 5681 5680 5680 5679 5678 5677 5676 5675 5674 5673 5671 5669 5668 5666 5665 5664 5662 5661
5690 5690 5689 5689 5688 5687 5687 5687 5686 5686 5686 5686 5686 5685 5685 5683 5682 5681 5681 5680 5679 5678 5677 5676 5675 5674 5673 5672 5671 5670 5669 5668 5666 5665 5664 5662 5660 5658 5657 5655 5654 5652 5650 5648
5685 5684 5684 5684 5683 5682 5682 5682 5681 5680 5680 5679 5679 5679 5678 5676 5675 5674 5673 5672 5671 5670 5669 5668 5667 5666 5664 5663 5662 5661 5660 5658 5656 5655 5653 5651 5650 5648 5646 5644 5642 5640 5637 5635
5679 5678 5677 5677 5676 5675 5676 5677 5675 5674 5674 5673 5672 5673 5670 5669 5668 5667 5665 5664 5663 5661 5660 5659 5658 5656 5655 5654 5652 5651 5649 5647 5646 5644 5642 5640 5638 5636 5634 5632 5630 5627 5625 5622
5672 5670 5669 5669 5669 5668 5672 5668 5667 5666 5666 5665 5663 5663 5662 5660 5659 5658 5656 5655 5654 5652 5651 5649 5648 5647 5645 5644 5642 5640 5638 5637 5635 5633 5631 5629 5626 5624 5622 5620 5617 5614 5612 5609
5664 5662 5661 5660 5658 5659 5662 5660 5659 5657 5657 5656 5655 5653 5652 5650 5649 5648 5647 5645 5644 5642 5641 5640 5638 5637 5635 5633 5631 5630 5628 5626 5623 5621 5619 5617 5614 5612 5609 5606 5604 5601 5598 5595
5655 5654 5653 5651 5649 5650 5653 5651 5649 5648 5647 5647 5645 5644 5642 5641 5640 5639 5637 5635 5634 5632 5631 5629 5628 5626 5624 5622 5620 5618 5616 5614 5611 5609 5607 5604 5601 5599 5596 5593 5590 5587 5584 5581
5645 5644 5643 5641 5639 5640 5642 5641 5639 5639 5639 5636 5634 5633 5632 5630 5629 5628 5626 5624 5623 5621 5620 5618 5617 5615 5613 5611 5608 5606 5604 5602 5599 5597 5594 5591 5588 5585 5583 5580 5576 5573 5570 5566
5634 5633 5633 5631 5629 5632 5631 5629 5628 5627 5626 5624 5623 5622 5621 5620 5618 5617 5615 5614 5612 5610 5609 5607 5605 5603 5601 5599 5596 5594 5592 5589 5586 5584 5581 5578 5575 5572 5569 5566 5562 5559 5555 5551
5623 5623 5621 5621 5621 5620 5618 5617 5616 5614 5614 5613 5612 5611 5609 5608 5607 5605 5604 5602 5601 5599 5597 5595 5593 5591 5589 5586 5584 5581 5579 5576 5573 5571 5568 5565 5561 5558 5555 5551 5548 5544 5540 5536
5611 5610 5609 5608 5608 5607 5606 5604 5603 5602 5601 5600 5599 5598 5597 5596 5595 5593 5592 5590 5588 5586 5584 5582 5580 5578 5576 5574 5571 5568 5565 5562 5560 5557 5554 5551 5547 5544 5540 5537 5533 5529 5524 5520
5599 5597 5595 5595 5595 5594 5593 5592 5591 5590 5588 5587 5586 5585 5584 5583 5582 5580 5579 5577 5575 5573 5571 5569 5567 5565 5563 5560 5558 5555 5552 5549 5546 5543 5540 5537 5533 5530 5526 5522 5518 5513 5509 5503
5587 5583 5581 5581 5581 5579 5580 5578 5577 5576 5575 5574 5573 5572 5571 5569 5568 5566 5565 5563 5561 5560 5558 5556 5554 5551 5549 5547 5544 5542 5539 5536 5533 5530 5526 5523 5519 5515 5511 5507 5503 5498 5493 5488